[Date Prev][Date Next][Thread Prev][Thread Next][Date Index][Thread Index]
[jamsat-news:1194] jas2info #163
- From: Takayama Syuzo <takayama@bm-1.ktokai-u.ac.jp>
 
- Date: Wed, 15 Dec 1999 19:00:56 +0900
 
- References: <199911221417.HFH02641.BLNBBBUZ@bm-1.ktokai-u.ac.jp>
 
========================   ºÇ¿·¾ðÊó   ==============================
        Last updated ¡§Thu.15-Dec.-1999 19:00 (JST) #163
====================================================================
   
     ±ÒÀ±¾ðÊ󡡣ƣϥ·¥ê¡¼¥º¤Îµ°Æ»Í×ÁÇ¡¢¥Æ¥ì¥á¥È¥ê¡¢£Ñ£Ó£Ï¤Î¾õ¶·Åù¤ò
   ¤Þ¤È¤á¤Æ¤ß¤Þ¤·¤¿¡¥
         
 ¢£ µ°Æ»Í×ÁÇ£±¡§¡Öjamsat¡Ýkeps¡§£¹£´£µ¡×¤è¤ê¡¡
              SB KEPS @ AMSAT  $ORB99344.N
¡¡¡¡¡¡¡¡¡¡¡¡¡¡2Line Orbital Elements 99344.AMSAT
¡¡HR AMSAT ORBITAL ELEMENTS FOR AMATEUR SATELLITES IN NASA FORMAT
¡¡FROM WA5QGD FORT WORTH,TX December 10, 1999
¡¡SEND SUBSCRIBE/UNSUBSCRIBE TO majordomo@amsat.org ONLY
¡¡BID: ORB99344.N
¡¡DECODE 2-LINE ELSETS WITH THE FOLLOWING KEY:
¡¡1 AAAAAU 00  0  0 BBBBB.BBBBBBBB  .CCCCCCCC  00000-0  00000-0 0  DDDZ
¡¡2 AAAAA EEE.EEEE FFF.FFFF GGGGGGG HHH.HHHH III.IIII JJ.JJJJJJJJKKKKKZ
¡¡KEY: A-CATALOGNUM B-EPOCHTIME C-DECAY D-ELSETNUM E-INCLINATION F-RAAN
¡¡G-ECCENTRICITY H-ARGPERIGEE I-MNANOM J-MNMOTION K-ORBITNUM Z-CHECKSUM
¡¡TO ALL RADIO AMATEURS BT
 
¡¡¡¡FO-29
¡¡¡¡1 24278U 96046B   99342.84570779  .00000028  00000-0  65334-4 0 02978
¡¡¡¡2 24278 098.5806 270.8045 0351344 002.1924 358.0661 13.52691199163426¡¡
¡¡
 ¢£ µ°Æ»Í×ÁÇ£²¡§¡Öjamsat¡Ýkeps¡§£¹£´£¶¡×¤è¤ê
                         
¡¡¡¡¡¡¡¡¡¡¡¡¡¡¡¡¡¡SB KEPS @ AMSAT  $ORB99344.O
¡¡¡¡¡¡¡¡¡¡¡¡¡¡¡¡¡¡rbital Elements  99344.OSCAR
¡¡HR AMSAT ORBITAL ELEMENTS FOR OSCAR SATELLITES
¡¡FROM WA5QGD FORT WORTH,TX December 10, 1999
¡¡SEND SUBSCRIBE/UNSUBSCRIBE TO majordomo@amsat.org ONLY
¡¡BID: ORB99344.O
¡¡TO ALL RADIO AMATEURS BT
  Satellite: FO-29
¡¡Catalog number: 24278
¡¡Epoch time:      99342.84570779
¡¡Element set:   ¡¡¡¡¡¡ 0297
¡¡Inclination:      098.5806 deg
¡¡RA of node:       270.8045 deg
¡¡Eccentricity:    0.0351344
¡¡Arg of perigee:   002.1924 deg
¡¡Mean anomaly:     358.0661 deg
¡¡Mean motion:   13.52691199 rev/day
¡¡Decay rate:        2.8e-07 rev/day^2
¡¡Epoch rev:           16342
¡¡Checksum:              338
¡¡
-------------------¡¡¡¡FO-29¡ÊJAS-2)¡¡QSO¤Ë´Ø¤¹¤ë¾ðÊó¡¡¡¡------------------------
[jamsat-bb:4854]¤Ë¤ª¤¤¤Æ¶âÂô¤ÎJH0TOG/9¤ÎµÈÅĻ᤬GP¤ò»È¤¤FO-29¤Ë¥¢¥¯¥»¥¹¤µ¤ì¤¿ÏÃÂê¤ò
Åê¹Æ¤µ¤ì¤Æ¤¤¤Þ¤·¤¿¤Î¤ÇžºÜ¤µ¤»¤ÆÄº¤¤Þ¤·¤¿.
¡¡¤³¤ó¤Ë¤Á¤ï¡¡¶âÂô¤ÎµÈÅĤǤ¹¡££Ç£Ð¤Ç£Æ£Ï¡Ý£²£¹¤Ë¥¢¥¯¥»¥¹¤·¤Æ¤Þ¤·¤¿¡£
¤Þ¤º¡¢±ÒÀ±¤¬¸«¤¨¤Æ¤¤¿»þ¤Ë¡¢¥Ñ¥¹¥Ð¥ó¥É¤Î¤¶¤ï¤¶¤ï¤¬Ê¹¤³¤¨¤Æ¤¯¤ë
¤³¤È¤Ç¤¹¤è¤Í¡¥¡¥¡¥¡¥ÅÔ²ñ¤Ç¤Ï¡¢¥Î¥¤¥º¤ä¤é£Æ£Í¶É¤ä¤é¤Ç¤ï¤«¤ë¤Î¤«¤Ê
¡©¤³¤³¶âÂô¤Ç¤â·ë¹½¡¡£Æ£Í¶É¤ä¤éÅòʨ¤«¤·´ï¤Î¥Î¥¤¥º¤Ê¤É¤¬¤¢¤ê¤Þ¤¹
¤¬¡¢¤¢¤¤é¤«¤Ë±ÒÀ±¤¬¸«¤¨¤Æ¤¤¿¤È¤¤Î¤¶¤ï¤¶¤ï¤Ï¤ï¤«¤ê¤Þ¤¹¡£
¤³¤Î¤¶¤ï¤¶¤ï¤ÎÃæ¤Ë¤Ï¡¢¤â¤Á¤í¤ó¤É¤³¤Î¹ñ¤«¤ï¤«¤ê¤Þ¤»¤ó¤¬¡¢
³°¹ñ¸ì¤Î£Æ£Í¶É¤Î¿®¹æ¤ä¤é¡¢£Ê£Á¤Î£Æ£Í°Üư¶É¤Î¿®¹æ¤¬Ê¹¤³¤¨¤Þ¤¹¡£
¤½¤ì¤«¤é¡¢¼«Ê¬¤Î¥À¥¦¥ó¥ê¥ó¥¯¤¬¤ï¤«¤ë¤³¤È¡¥¡¥¡¥
¤½¤ì¤¬£³£±°Ê¾å¤Ê¤é¡¢Ê¹¤³¤¨¤ë¤Ï¤º¤Ç¤¹¡£¡Ê¼ª¤Î¤¤¤¤¶É¤Ê¤é¡Ë
º£¡¢»ä¤¬»ÈÍѤ·¤Æ¤¤¤ë£Ç£Ð¡¡¥À¥¤¥ä¥â¥ó¥É¤Î£Ø£µ£°£°£°¡¡Ä¹¤µ¤¬£±¡¥£¸£í
¤Î¥¢¥ó¥Æ¥Ê¤Ç¤¹¡£¤³¤ì¤Ç¤â£Æ£Ï¡Ý£²£¹¤Î²Ä»ë»þ´Ö¤Î£²¡¿£³¤¯¤é¤¤¤Ï
¼«Ê¬¤Îµ¢¤ê¿®¹æ¤òʹ¤¯¤³¤È¤¬¤Ç¤¤Þ¤¹¡£¡Ê£´£±¡Ý£µ£±¤Ç¡Ë
¡ÊÀè¤Û¤É¤ÏÃë¿©»þ¤Ç¤À¤ì¤â±þÅú¤¢¤ê¤Þ¤»¤ó¤Ç¤·¤¿¡¥¡¥¡¥¡Ë
¤È¤Æ¤â¼å¤¤¤Ç¤¹¤¬¡¢¼þÇÈ¿ô¤ò¤¤Á¤ó¤È°Ý»ý¤Ç¤¤ë¾õÂÖ¤Çʹ¤³¤¨¤Æ¤¤¤Þ¤¹¡£
¤³¤ì¤«¤é¥¢¥Ê¥í¥°Äãµ°Æ»±ÒÀ±¤Ë½Ð¤Æ¤³¤é¤ì¤ëÊý¤Ï¡¢¤½¤ó¤Ê¡¡¶¯ÎϤǤʤ¯¤Æ
¤â¡¢¤À¤ì¤«¼õ¿®¤·¤Æ¤¯¤ì¤Þ¤¹¤Î¤Ç¡¢¤É¤¦¤¾±ÒÀ±¤Ë¤Ç¤Æ¤¤Æ¤¯¤À¤µ¤¤¡£
¤Þ¤º¤Ï¡¢¼«Ê¬¤Îµ¢¤ê¤Î¿®¹æ¤ò¤½¤Î¼õ¿®¼þÇÈ¿ô¤Ë°Ý»ý¤¹¤ë¤è¤¦¤Ë¡¢¥¢¥Ã¥×
¥ê¥ó¥¯¤Î¼þÇÈ¿ô¤òÄ´À°¤¹¤ëÎý½¬¤ò¤·¤Æ¤¯¤À¤µ¤¤¡£
¡Ê¤³¤ì¡¢¤È¤Æ¤âÂçÀڤʤ³¤È¤Ç¤¹¡Ë¤½¤¦¤·¤Æ¤¤¤ë¤È¡¢¶¯¤¹¤®¤ëÊý¤Ï¡¢¤À¤ì¤«¤Ë¥ï¥Ë
¤µ¤ó¤Ë¤Ê¤Ã¤Æ¤ë¤è¤Ã¤Æ¡¢¸À¤ï¤ì¤Þ¤¹¤«¤é¡¥¡¥¡¥°Â¿´¤·¤Æ¤¯¤À¤µ¤¤¡£
£Ð£Ó¡¥¥Î¥¤¥º¤¬¤¹¤´¤¤¤Î¤Ç¼õ¿®¥¢¥ó¥×¤Ï¤º¤·¤Æ¤¤¤Þ¤¹¤¬¡¢»ä¤Îµ¢¤ê¿®¹æ°Ê¾å¤Î
¥ì¥Ù¥ë¤Ç¤¢¤ì¤Ð¡¢Î»²ò¤Ç¤¤Þ¤¹¤Î¤Ç¡¥¡¥¡¥
Katsumi Yoshida(JH0TOG/9)
Mailto :jh0tog@d1.dion.ne.jp
URL: http://www.fsinet.or.jp/~jh0yqp/
-------------------¡¡¡¡FO-29¡ÊJAS-2)¤Î¥Æ¥ì¥á¥È¥ê¤Ë´Ø¤¹¤ë¾ðÊó¡¡¡¡------------------------¡¡
¡¡¡¡[jamsat-bb:4878]¤Ë¤ÆJE£¹PEL/1¤ÎÏÆÅÄ¡¡Èþº¬É׻᤬FO-29¤Î¥Ç¥£¥¸¥¿¥ë¥Æ¥ì¥á¥È¥ê¤Î
¡¡Á÷¿®ÅÅÎϤβòÀϤòÅê¹Æ¤µ¤ì¤Æ¤¤¤Þ¤·¤¿¤Î¤ÇžºÜ¤µ¤»¤ÆÄº¤¤Þ¤·¤¿.
---------------------------------
±ÒÀ±FO-29 ¥Ç¥¸¥¿¥ëÁ÷¿®ÅÅÎϤβòÀÏ (by fo29tlm5.exe)
--------------------------------
¼õ¿®Æü»þ
 ( ¥Ç¡¼¥¿ 1 )  Dec.14 1999  11:35:41JST
 ( ¥Ç¡¼¥¿ 2 )  Dec.14 1999  11:35:44JST
 ( ¥Ç¡¼¥¿ 3 )  Dec.14 1999  11:35:50JST
 ( ¥Ç¡¼¥¿ 4 )  Dec.14 1999  11:35:52JST
 ( ¥Ç¡¼¥¿ 5 )  Dec.14 1999  11:35:56JST
 ( ¥Ç¡¼¥¿ 6 )  Dec.14 1999  11:36:13JST
 ( ¥Ç¡¼¥¿ 7 )  Dec.14 1999  11:36:16JST
 ( ¥Ç¡¼¥¿ 8 )  Dec.14 1999  11:36:22JST
 ( ¥Ç¡¼¥¿ 9 )  Dec.14 1999  11:36:36JST
 ( ¥Ç¡¼¥¿10 )  Dec.14 1999  11:36:38JST
 ( ¥Ç¡¼¥¿11 )  Dec.14 1999  11:37:17JST
 ( ¥Ç¡¼¥¿12 )  Dec.14 1999  11:37:26JST
 ( ¥Ç¡¼¥¿13 )  Dec.14 1999  11:37:41JST
¥Ç¥¸¥¿¥ëÁ÷¿®ÅÅÎÏ (# 50mW)
 ( ¥Ç¡¼¥¿ 1 )  1338.5[mW] : ###########################
 ( ¥Ç¡¼¥¿ 2 )  1761.4[mW] : ###################################
 ( ¥Ç¡¼¥¿ 3 )  1338.5[mW] : ###########################
 ( ¥Ç¡¼¥¿ 4 )  1338.5[mW] : ###########################
 ( ¥Ç¡¼¥¿ 5 )  1761.4[mW] : ###################################
 ( ¥Ç¡¼¥¿ 6 )  1635.9[mW] : #################################
 ( ¥Ç¡¼¥¿ 7 )  1472.0[mW] : #############################
 ( ¥Ç¡¼¥¿ 8 )   587.4[mW] : ############
 ( ¥Ç¡¼¥¿ 9 )  1338.5[mW] : ###########################
 ( ¥Ç¡¼¥¿10 )  1324.5[mW] : ##########################
 ( ¥Ç¡¼¥¿11 )  1761.4[mW] : ###################################
 ( ¥Ç¡¼¥¿12 )   666.7[mW] : #############
 ( ¥Ç¡¼¥¿13 )  1179.2[mW] : ########################
 1.0      *              *                             *           1.0
                              *
 0.9                                                               0.9
                                   *
 0.8                                                               0.8
     *         *    *                        *    *
 0.7                                                             * 0.7
 0.6                                                               0.6
 0.5                                                               0.5
 0.4                                                        *      0.4
 0.3                                    *                          0.3
 0.2                                                               0.2
 0.1                                                               0.1
     +----+----+----+----+----+----+----+----+----+----+----+----+
     1    2    3    4    5    6    7    8    9   10   11   12   13
               ½Ä¼´¡§ºÇÂçÃͤËÂФ¹¤ëÈæÎ¨¡¢ ²£¼´¡§¥Ç¡¼¥¿¿ô
¡¡----------------------------------------------
¡¡Name : JE9PEL/1 ÏÆÅÄ
¡¡Mail : je9pel@jamsat.or.jp
¡¡URL  : http://www.ne.jp/asahi/hamradio/je9pel/
¡¡QTH  : Yokohama, Japan
¡¡Date : Dec 14, 1999
¡¡----------------------------------------------
¡¡------------------------   FO-20(JAS-1b)¡¡-----------------------
-----------------------    FO-20¡ÊJAS-£±£â¡ËÆ»Í×ÁÇ   -------------------------------
 
 ¢£ µ°Æ»Í×ÁÇ£± ¡§½Ðŵ¤ÏFO-29¡Ö¤Õ¤¸£³¹æ¡×¤ËƱ¤¸¡¥
  
  FO-20
¡¡1 20480U 90013C   99342.97950904 -.00000009  00000-0  43573-4 0 02020
¡¡2 20480 099.0259 144.4535 0541279 128.3896 236.7111 12.83260711460755
 
 ¢£ µ°Æ»Í×ÁÇ£² ¡§½Ðŵ¤ÏFO-29¡Ö¤Õ¤¸£³¹æ¡×¤ËƱ¤¸¡¥
               
  Satellite: FO-20
¡¡Catalog number: 20480
¡¡Epoch time:      99342.97950904
¡¡Element set:    0202
¡¡Inclination:      099.0259 deg
¡¡RA of node:       144.4535 deg
¡¡Eccentricity:    0.0541279
¡¡Arg of perigee:   128.3896 deg
¡¡Mean anomaly:     236.7111 deg
¡¡Mean motion:   12.83260711 rev/day
¡¡Decay rate:       -9.0e-08 rev/day^2
¡¡Epoch rev:           46075
¡¡Checksum:              311
 ==================================================================================
 £µ¡Ë£Ê£Á£Ò£Ì ¤Î¥Û¡¼¥à¥Ú¡¼¥¸¤Ë±¿ÍÑͽÄ꤬µºÜ¤µ¤ì¤Æ¤¤¤Þ¤·¤¿¤Î¤Ç¤´¾Ò²ð¤·¤Þ¤¹¡¥
       ¡Ê http://www.jarl.or.jp/Japanese/3_Fuji/uy.htm ¡Ë
        ¢£ ¤Õ¤¸£³¹æ¡¿FO¡¼29/JAS-2 ¢£  
  ¡¡
¡¡¡¡¡¡¡¡¡¡¡ö¡ö¡ö¡¡±¿ÍÑͽÄê¤Ë¤Ä¤¤¤Æ¡¡¡ö¡ö¡ö¡¡¡¡¡¡¡¡ 
¡¡¡¡¡¡¡¡
¡¡ £±£²·î£°£±Æü¡¡¡Á £±£²·î£±£²Æü¡¡¡¡¡¡¡¡ ¥¢¥Ê¥í¥°·Ï±¿ÍÑ
¡¡ £±£²·î£±£³Æü¡¡¡Á £±£²·î£±£¹Æü¡¡¡¡¡¡¡¡ ¥Ç¥¸¥¿¥ë·Ï£±£²£°£°£â£ð£ó¥á¡¼¥ë¥Ü¥Ã¥¯±¿ÍÑ
¡¡ £±£²·î£²£°Æü¡¡¡Á £°£±·î£±£±Æü¡¡¡¡¡¡¡¡ ¥¢¥Ê¥í¥°·Ï±¿ÍÑ
¡¡
¡¡¢¨¤Ê¤ª¡¤±¿ÍÑͽÄê¤ÏÅÔ¹ç¤Ë¤è¤êÊѹ¹¤¹¤ë¤³¤È¤¬¤¢¤ê¤Þ¤¹¤Î¤Ç¤´Î»¾µ´ê¤¤¤Þ¤¹¡£
¡¡¾È²ñÀè¡¡¡§¡¡lab@jarl.or.jp
¡¡ºÇ¿·¤Î¾ðÊó¤Ï¥Æ¥ì¥Û¥ó¥µ¡¼¥Ó¥¹¡Ê¡§£°£³¡Ý£³£¹£´£²¡Ý£±£°£°£°¡Ë¤ò¤ªÊ¹¤¤¯¤À¤µ¤¤¡£
¡¡¡¡¡¡
¡¡°Ê¸å¤Î±¿ÍѤËÉÕ¤¤Þ¤·¤Æ¤Ï£±£²·î²¼½Ü¤Ë¤ªÃΤ餻¤¤¤¿¤·¤Þ¤¹¡£
--------------------------------------------------------------------------------
¡¡        ¢£ ¤Õ¤¸£²¹æ¡¿£Æ£Ï¡Ý£²£°/JAS-1£â ¢£  ¡¡   
            
¡¡¡¡¡¡¡¡¡¡¡¡¡¡¡¡¡¡¡¡¡Ö¤Õ¤¸£²¹æ¡×¡¡¸½¶·                                                                                  
             
   JAS-1b/FO-20¡Ê¤Õ¤¸£²¹æ¡Ë¤ÎÉÔ¶ñ¹çȯÀ¸¤Ë¤Ä¤¤¤Æ
    JAS-1b¡Ê¤Õ¤¸£²¹æ¡Ë¤Î£Ã£×¥Æ¥ì¥á¥È¥ê¿®¹æ¤Ë¡¤£±£¹£¹£·Ç¯£±£°·î£±£²Æü£±£²»þ
 ¡Ê£Ê£Ó£Ô¡Ë¤ÎÆüËܾå¶õÄ̲á»þ¡¤£³·å¤Î¿ô»ú¤¬·«¤êÊÖ¤µ¤ì¤ë¤Ï¤º¤¬£³¸Ä¤ÎĹ²»¤Î
  ·«¤êÊÖ¤·¤È¤Ê¤Ã¤Æ¤¤¤ë¤È¤¤¤¦°Û¾ï¤¬È¯¸«¤µ¤ì¤Þ¤·¤¿¡£¤³¤ÎÉÔ¶ñ¹ç¤Ï¼¡¤ÎÄ̲á»þ
  ¤«¤é¤Ï²óÉü¤·¤Æ¤¤¤Þ¤·¤¿¤¬£±£³Æü£±£µ»þ£²£°Ê¬¤ÎÄ̲á»þ¤ËºÆ¤Ó´Ñ¬¤µ¤ì¤Þ¤·¤¿¡£
  ±ÒÀ±¤Î¥¢¥Ê¥í¥°·ÏÃæ·Ñ¥â¡¼¥Éưºî¤Ï°Û¾ï¤¬Ìµ¤¯¡¤Àµ¾ï»þ¤Î¥Æ¥ì¥á¥È¥êÆâÍÆ¤«¤é¤Ï
  ±ÒÀ±¤Îưºî¤Ë°Û¾ï¤Ïǧ¤á¤é¤ì¤Þ¤»¤ó¡£½¾¤Ã¤Æ¡¤Ä¾¤Á¤Ë±ÒÀ±¤Î¥ß¥Ã¥·¥ç¥ó¤Ë±Æ¶Á¤¹
  ¤ë¤³¤È¤Ï̵¤¤¤ÈͽÁÛ¤µ¤ì¤Þ¤¹¤Î¤Ç¡¤ÅöÌ̤ϥ¢¥Ê¥í¥°·ÏÃæ·Ñ¥â¡¼¥É¤ò·Ñ³¤·¤Þ¤¹¡£
  ±ÒÀ±¤Ï´û¤ËÂǤÁ¾å¤²¤Æ¤«¤é£·Ç¯£¸¥ö·î¤ò·Ð¤Æ¤ª¤ê¤Þ¤¹¤Î¤Ç¡¤º£¸å¤Ï´Æ»ë¤ò¶¯²½¤¹
  ¤ëͽÄê¤Ç¤¹¡£¥¢¥Þ¥Á¥å¥¢³Æ°Ì¤Î¥ì¥Ý¡¼¥È¤ò¤ªÂÔ¤Á¤·¤Þ¤¹¡¥   
  
  °Ê¾å  http://www.jarl.or.jp/Japanese/3_Fuji/fuji.htm
                                           
   =============   JAS-2 ¡Ê¤Õ¤¸£³¹æ¡Ë¤È¸½ºß¤Þ¤Ç¤Î¾ðÊó   ===========
  
  £Á¡¥ÅÅÏäˤè¤ë¤Õ¤¸£³¹æ¤Î±¿ÍѾðÊó
      ¼ÒÃÄË¡¿ÍÆüËÜ¥¢¥Þ¥Á¥å¥¢Ï¢ÌÁ¤Ë¤è¤ë¥µ¡¼¥Ó¥¹
           £Ô£Å£Ì ¡¥   £°£³¡Ý £³£¹£´£² ¡Ý £±£°£°£°
  £Â¡¥¥¢¥Þ¥Á¥å¥¢ÌµÀþ£Æ£Á£Ø¥µ¡¼¥Ó¥¹
      £Ê£Á£Ò£Ì¤Ë¤è¤ë¤Õ¤¸£³¹æ¤Îµ°Æ»¾ðÊó¡Ê¥ª¡¼¥Ó¥Ã¥È¥«¥ì¥ó¥À¡¼¡Ë
         £Æ£Á£Ø £Î£ï¡¥  £°£³¡Ý £³£²£³£³ ¡Ý£°£°£µ£µ
  £Ã¡¥£×£×£×¥Ö¥é¥¦¥¶¤Ç¾ðÊó¤ò´Êñ¤Ë¸«¤ì¤ë¿Í¤Î¤¿¤á¤Ë£Ê£Á£Ó¡Ý£²
     ¤Õ¤¸£³¹æ¤Î±ÒÀ±¤È¤·¤Æ¤Î±¿ÍѤµ¤ì¤ë¤Þ¤Ç¤Î̾Á°¡Ë¤Î³µÍס¢ÂǤÁ¾å¤²
     ¤Þ¤Ç¤Î¾õ¶·¡¢±¿ÍÑÃæ¤Ë¤ª¤±¤ë¾õ¶·¤òÀâÌÀ¤·¤¿¥Û¡¼¥à¥Ú¡¼¥¸¤ò¾Ò²ð¤·
     ¤Æ¤ª¤¤Þ¤¹¡¥
    ¡ ¼ÒÃÄË¡¿ÍÆüËÜ¥¢¥Þ¥Á¥å¥¢ÌµÀþÏ¢ÌÁ¡Ê£Ê£Á£Ò£Ì¡Ë¤Î¥Û¡¼¥à¥Ú¡¼¥¸
          http://www.jarl.or.jp/Japanese/3_Fuji
 
    ¢ ±§Ã賫ȯ»ö¶ÈÃġʣΣÁ£Ó£Ä£Á¡Ë¥Û¡¼¥à¥Ú¡¼¥¸ 
          http://www.nasda.go.jp/
         ÂǾ夲±ÒÀ±¡¡¡§Ãϵå´Ñ¬¥×¥é¥Ã¥È¥Õ¥©¡¼¥àµ»½Ñ±ÒÀ±¡ÊADEOS¡Ë 
                       ¥¢¥Þ¥Á¥å¥¢±ÒÀ±£³¹æ(JAS-2)
          http://yyy.tksc.nasda.go.jp/Home/Press/Press-j/jas-2_j.html        
  £Ä¡¥£Ê£Á£Í£Ó£Á£Ô¤Ë¤è¤ëµ°Æ»¾ðÊó¤Î³èÍÑ
        JAMSAT¤Î¥Û¡¼¥à¥Ú¡¼¥¸¤Þ¤¿¤Ïjamsat¡Ýkeps¤Îµ°Æ»Í×ÁǤè¤ê
      ±ÒÀ±¤Îµ°Æ»¾ðÊó¤òÆÀ¤ë¡¥
     £Ê£Á£Í£Ó£Á£Ô¥Û¡¼¥à¥Ú¡¼¥¸
               £Õ£Ò£Ì    http://www.jamsat.or.jp
       ¾åµ¥Û¡¼¥à¥Ú¡¼¥¸¤Ç¤Ï³ÆÃϤǹԤï¤ì¤ë¥¢¥Þ¥Á¥å¥¢ÄÌ¿®±ÒÀ±¤Ë´Ø¤¹¤ë
      ¥ß¥å¡¼¥Æ¥£¥ó¥°¤Î¤ªÃΤ餻¤äÀ¤³¦¤Î¥¢¥Þ¥Á¥å¥¢±ÒÀ±¤Ë´Ø¤¹¤ë¾ðÊó¤¬
      ËþºÜ¤µ¤ì¤Æ¤¤¤Þ¤¹¡¥
   
 =========================================================================
       £Ê£Á£Í£Ó£Á£Ô¤Î¥á¥ó¥Ð¡¼¤Î¤´¶¨ÎϤˤè¤ê£Ê£È£¶£Í£Í£Å¡Ê¹â»³ ½¨Â¤¡Ë¤¬
    ¼¹É®¡¦ÊÔ½¸¤òôÅö¤·¤Æ¤ª¤ê¤Þ¤¹¡¥¤´»ØÅ¦¤Î°Õ¸«¡¢µ¿Ìä¤ä¤³¤Î¤è¤¦¤Ë¤·¤¿¤é
    ¤È¤¤¤¦¥¢¥¤¥Ç¥¢¤¬¤¢¤ê¤Þ¤·¤¿¤é¾®¤µ¤Ê¤³¤È¤Ç¤â¤«¤Þ¤¤¤Þ¤»¤ó¤Î¤Çµ¤·Ú¤Ë²¼
    µ¥¢¥É¥ì¥¹¤Þ¤Ç¤´Ï¢Íí¤¯¤À¤µ¤¤¡¥£ê£á£í£ó£á£ô¡Ý£î£å£÷£ó¤«¤é£ê£á£ó£²
    £é£î£æ£ï¤Ø¤ÎžºÜ¤ò£Ê£È£´£Ð£È£×¶Éºä°æ¤µ¤ó¤ËôÅö¤·¤ÆÄº¤¤¤Æ¤ª¤ê¤Þ¤¹¡¥
                    E-mail : jh6mme@jamsat.or.jp : jh4phw@jamsat.or.jp
 ===============================   £Å£Î£Ä  ===============================